QPF
0.00 0.00 0.00 0.00 0.00 0.00 0.00 0.01 0.02 0.02 0.02 0.03 0.03 0.04 0.06 0.03 0.03 0.02 0.01 0.00 0.00 0.01 0.03 0.04 0.04 0.04 0.04 0.03 0.02 0.01 0.00 0.00 0.00 0.00 0.00 0.00 0.00 0.00 0.00 0.00 0.00 0.00 0.00
0.00 0.00 0.00 0.00 0.00 0.00 0.00 0.00 0.01 0.01 0.01 0.02 0.03 0.05 0.05 0.04 0.04 0.03 0.01 0.00 0.00 0.00 0.02 0.03 0.03 0.03 0.04 0.03 0.02 0.01 0.00 0.00 0.00 0.00 0.00 0.00 0.00 0.00 0.00 0.00 0.00 0.00 0.00
0.00 0.00 0.00 0.01 0.00 0.00 0.00 0.00 0.00 0.00 0.00 0.00 0.01 0.02 0.02 0.03 0.03 0.03 0.02 0.01 0.00 0.00 0.00 0.00 0.01 0.01 0.01 0.01 0.01 0.00 0.00 0.00 0.00 0.00 0.00 0.00 0.00 0.00 0.00 0.00 0.00 0.00 0.00
0.00 0.00 0.00 0.00 0.00 0.00 0.00 0.00 0.00 0.00 0.00 0.00 0.00 0.00 0.00 0.01 0.02 0.02 0.02 0.02 0.02 0.00 0.00 0.00 0.00 0.01 0.01 0.00 0.00 0.00 0.00 0.00 0.00 0.00 0.00 0.00 0.00 0.00 0.00 0.00 0.00 0.00 0.00
0.00 0.00 0.00 0.00 0.00 0.00 0.00 0.00 0.00 0.00 0.00 0.00 0.00 0.00 0.01 0.02 0.03 0.03 0.03 0.05 0.04 0.01 0.00 0.00 0.00 0.00 0.01 0.00 0.00 0.00 0.00 0.00 0.00 0.00 0.00 0.00 0.00 0.00 0.00 0.00 0.00 0.00 0.00
0.00 0.00 0.00 0.00 0.00 0.00 0.00 0.00 0.00 0.00 0.00 0.00 0.00 0.00 0.01 0.02 0.02 0.02 0.02 0.04 0.04 0.02 0.00 0.00 0.01 0.01 0.01 0.00 0.00 0.00 0.00 0.00 0.00 0.00 0.00 0.00 0.00 0.00 0.00 0.00 0.00 0.00 0.00
0.00 0.00 0.00 0.00 0.00 0.00 0.00 0.00 0.00 0.00 0.00 0.00 0.00 0.00 0.01 0.01 0.02 0.01 0.01 0.01 0.01 0.01 0.00 0.01 0.01 0.02 0.02 0.02 0.01 0.01 0.01 0.02 0.01 0.00 0.00 0.00 0.00 0.00 0.00 0.00 0.00 0.00 0.00
0.00 0.00 0.00 0.00 0.00 0.00 0.00 0.00 0.00 0.00 0.00 0.00 0.00 0.00 0.00 0.01 0.01 0.01 0.00 0.01 0.00 0.00 0.00 0.01 0.01 0.02 0.03 0.04 0.03 0.02 0.02 0.03 0.02 0.02 0.01 0.00 0.00 0.00 0.00 0.00 0.00 0.00 0.00
0.00 0.00 0.00 0.00 0.00 0.00 0.00 0.00 0.00 0.00 0.00 0.00 0.00 0.00 0.00 0.00 0.00 0.00 0.00 0.00 0.00 0.00 0.00 0.01 0.01 0.01 0.02 0.03 0.03 0.02 0.02 0.02 0.03 0.07 0.05 0.06 0.03 0.01 0.01 0.02 0.01 0.00 0.00
0.00 0.00 0.00 0.00 0.01 0.01 0.01 0.00 0.01 0.01 0.01 0.00 0.00 0.00 0.00 0.00 0.00 0.00 0.00 0.00 0.00 0.00 0.00 0.00 0.01 0.01 0.02 0.03 0.05 0.05 0.03 0.01 0.01 0.02 0.10 0.09 0.05 0.05 0.08 0.10 0.08 0.05 0.02
0.00 0.00 0.00 0.00 0.00 0.01 0.01 0.00 0.00 0.00 0.00 0.00 0.00 0.00 0.00 0.00 0.00 0.00 0.00 0.00 0.00 0.00 0.00 0.00 0.01 0.01 0.02 0.03 0.05 0.08 0.06 0.03 0.01 0.00 0.02 0.02 0.02 0.04 0.09 0.13 0.14 0.14 0.11
0.00 0.00 0.00 0.00 0.00 0.00 0.00 0.00 0.00 0.00 0.00 0.00 0.00 0.00 0.00 0.00 0.00 0.00 0.00 0.00 0.01 0.02 0.02 0.03 0.03 0.03 0.05 0.03 0.03 0.05 0.04 0.04 0.01 0.00 0.01 0.01 0.02 0.03 0.07 0.12 0.14 0.18 0.20
0.00 0.00 0.00 0.00 0.00 0.00 0.00 0.00 0.00 0.00 0.00 0.00 0.00 0.00 0.00 0.00 0.00 0.00 0.01 0.01 0.04 0.04 0.06 0.09 0.10 0.08 0.09 0.09 0.05 0.03 0.01 0.01 0.01 0.00 0.00 0.02 0.05 0.09 0.14 0.16 0.16 0.20 0.24
0.00 0.00 0.00 0.00 0.00 0.00 0.00 0.00 0.00 0.00 0.00 0.00 0.00 0.00 0.00 0.00 0.01 0.02 0.05 0.02 0.03 0.03 0.03 0.02 0.02 0.03 0.01 0.02 0.02 0.02 0.02 0.02 0.02 0.05 0.06 0.03 0.07 0.11 0.16 0.19 0.19 0.18 0.21
0.00 0.00 0.00 0.00 0.00 0.00 0.00 0.00 0.00 0.00 0.00 0.00 0.00 0.00 0.00 0.01 0.02 0.05 0.07 0.08 0.03 0.01 0.01 0.01 0.01 0.01 0.01 0.01 0.01 0.01 0.01 0.01 0.02 0.07 0.10 0.05 0.06 0.08 0.11 0.16 0.19 0.19 0.20
0.00 0.00 0.00 0.00 0.00 0.00 0.00 0.00 0.00 0.00 0.00 0.00 0.00 0.00 0.00 0.01 0.04 0.08 0.08 0.10 0.08 0.07 0.04 0.05 0.03 0.04 0.02 0.01 0.01 0.00 0.00 0.00 0.00 0.01 0.03 0.02 0.01 0.02 0.03 0.08 0.14 0.16 0.19
0.00 0.00 0.00 0.00 0.00 0.00 0.00 0.00 0.00 0.00 0.00 0.00 0.00 0.00 0.00 0.03 0.09 0.10 0.08 0.08 0.11 0.09 0.10 0.13 0.10 0.07 0.02 0.01 0.00 0.00 0.00 0.00 0.00 0.00 0.00 0.00 0.01 0.00 0.00 0.02 0.07 0.11 0.10
0.00 0.00 0.00 0.00 0.00 0.00 0.00 0.00 0.00 0.00 0.00 0.00 0.00 0.00 0.01 0.05 0.10 0.12 0.08 0.06 0.09 0.09 0.12 0.14 0.11 0.06 0.02 0.00 0.00 0.00 0.01 0.01 0.00 0.00 0.00 0.00 0.00 0.00 0.00 0.00 0.02 0.04 0.04
0.01 0.01 0.01 0.00 0.00 0.00 0.02 0.06 0.06 0.04 0.02 0.01 0.01 0.01 0.02 0.06 0.09 0.13 0.10 0.09 0.06 0.08 0.09 0.06 0.06 0.06 0.02 0.01 0.00 0.00 0.01 0.01 0.00 0.00 0.00 0.00 0.00 0.00 0.00 0.00 0.00 0.01 0.03
0.03 0.02 0.03 0.03 0.04 0.08 0.19 0.26 0.22 0.15 0.10 0.09 0.07 0.06 0.07 0.10 0.11 0.15 0.12 0.10 0.06 0.10 0.11 0.07 0.06 0.06 0.03 0.01 0.00 0.00 0.00 0.00 0.00 0.00 0.00 0.00 0.00 0.00 0.00 0.01 0.01 0.01 0.01
0.04 0.05 0.11 0.20 0.24 0.39 0.43 0.41 0.38 0.33 0.29 0.23 0.17 0.15 0.14 0.13 0.14 0.19 0.12 0.13 0.11 0.12 0.12 0.06 0.05 0.04 0.03 0.01 0.00 0.00 0.00 0.00 0.00 0.00 0.00 0.00 0.00 0.00 0.00 0.00 0.00 0.01 0.01
0.09 0.15 0.24 0.32 0.43 0.54 0.58 0.62 0.64 0.59 0.54 0.48 0.36 0.26 0.21 0.18 0.18 0.18 0.22 0.17 0.16 0.16 0.16 0.14 0.12 0.07 0.04 0.02 0.01 0.00 0.00 0.00 0.00 0.00 0.00 0.00 0.00 0.00 0.00 0.00 0.00 0.00 0.01
0.08 0.12 0.19 0.27 0.37 0.46 0.57 0.68 0.77 0.81 0.76 0.64 0.50 0.36 0.29 0.25 0.21 0.20 0.24 0.24 0.23 0.21 0.21 0.25 0.18 0.14 0.13 0.07 0.03 0.02 0.01 0.01 0.00 0.00 0.00 0.00 0.00 0.00 0.00 0.00 0.00 0.00 0.01
0.02 0.04 0.08 0.16 0.23 0.30 0.38 0.48 0.62 0.75 0.75 0.64 0.51 0.39 0.31 0.26 0.23 0.23 0.24 0.25 0.27 0.25 0.25 0.23 0.15 0.20 0.17 0.13 0.10 0.07 0.04 0.02 0.01 0.00 0.00 0.00 0.00 0.00 0.00 0.00 0.00 0.00 0.00
0.01 0.02 0.03 0.05 0.07 0.08 0.12 0.19 0.31 0.42 0.47 0.45 0.36 0.30 0.28 0.26 0.25 0.24 0.23 0.24 0.25 0.24 0.24 0.21 0.19 0.22 0.19 0.17 0.15 0.10 0.08 0.05 0.02 0.02 0.01 0.02 0.00 0.00 0.00 0.00 0.00 0.00 0.01
0.02 0.01 0.01 0.01 0.01 0.02 0.04 0.11 0.24 0.34 0.38 0.36 0.32 0.27 0.25 0.23 0.22 0.20 0.20 0.16 0.16 0.17 0.19 0.17 0.18 0.21 0.20 0.16 0.14 0.10 0.08 0.05 0.04 0.03 0.02 0.04 0.02 0.00 0.00 0.00 0.00 0.00 0.01
MSLP
1012.52 1012.56 1012.78 1013.16 1013.60 1014.05 1014.44 1014.71 1014.88 1014.98 1015.04 1015.14 1015.30 1015.54 1015.85 1016.19 1016.51 1016.77 1016.94 1017.03 1017.04 1017.03 1017.02 1017.06 1017.15 1017.28 1017.45 1017.62 1017.76 1017.85 1017.91 1017.93 1017.95 1017.97 1018.03 1018.13 1018.26 1018.40 1018.55 1018.66 1018.74 1018.77 1018.76
1012.46 1012.62 1012.94 1013.38 1013.86 1014.31 1014.66 1014.89 1015.01 1015.05 1015.08 1015.16 1015.33 1015.59 1015.92 1016.29 1016.63 1016.89 1017.05 1017.11 1017.10 1017.06 1017.05 1017.08 1017.19 1017.35 1017.55 1017.75 1017.90 1018.00 1018.03 1018.03 1018.00 1018.00 1018.04 1018.13 1018.27 1018.45 1018.62 1018.77 1018.88 1018.93 1018.94
1012.40 1012.68 1013.09 1013.59 1014.11 1014.56 1014.89 1015.09 1015.17 1015.19 1015.20 1015.27 1015.44 1015.71 1016.05 1016.41 1016.73 1016.97 1017.10 1017.13 1017.10 1017.05 1017.03 1017.08 1017.21 1017.41 1017.63 1017.84 1017.99 1018.07 1018.08 1018.04 1017.98 1017.94 1017.96 1018.04 1018.19 1018.38 1018.58 1018.76 1018.90 1018.98 1019.01
1012.37 1012.74 1013.23 1013.79 1014.33 1014.79 1015.12 1015.31 1015.39 1015.40 1015.41 1015.48 1015.64 1015.90 1016.22 1016.56 1016.84 1017.05 1017.14 1017.14 1017.09 1017.03 1017.03 1017.10 1017.26 1017.48 1017.72 1017.92 1018.06 1018.11 1018.08 1018.00 1017.90 1017.83 1017.83 1017.91 1018.06 1018.26 1018.48 1018.68 1018.85 1018.96 1019.03
1012.35 1012.80 1013.35 1013.94 1014.51 1014.99 1015.34 1015.54 1015.63 1015.66 1015.68 1015.76 1015.92 1016.16 1016.45 1016.74 1016.98 1017.13 1017.19 1017.17 1017.11 1017.07 1017.09 1017.19 1017.37 1017.60 1017.83 1018.02 1018.13 1018.14 1018.06 1017.94 1017.81 1017.72 1017.71 1017.78 1017.94 1018.15 1018.38 1018.60 1018.78 1018.93 1019.03
1012.38 1012.86 1013.44 1014.06 1014.65 1015.15 1015.52 1015.75 1015.88 1015.93 1015.98 1016.07 1016.22 1016.44 1016.68 1016.92 1017.11 1017.22 1017.25 1017.22 1017.18 1017.16 1017.21 1017.33 1017.53 1017.76 1017.97 1018.13 1018.19 1018.15 1018.04 1017.88 1017.73 1017.63 1017.62 1017.70 1017.86 1018.07 1018.31 1018.53 1018.72 1018.88 1019.01
1012.45 1012.94 1013.51 1014.13 1014.73 1015.24 1015.64 1015.91 1016.07 1016.17 1016.25 1016.35 1016.50 1016.68 1016.89 1017.08 1017.22 1017.30 1017.31 1017.28 1017.26 1017.27 1017.35 1017.50 1017.70 1017.91 1018.10 1018.20 1018.22 1018.13 1017.98 1017.79 1017.64 1017.55 1017.55 1017.64 1017.81 1018.03 1018.26 1018.47 1018.66 1018.82 1018.96
1012.58 1013.03 1013.58 1014.17 1014.75 1015.26 1015.67 1015.98 1016.18 1016.32 1016.43 1016.54 1016.68 1016.84 1017.01 1017.16 1017.26 1017.32 1017.32 1017.31 1017.31 1017.35 1017.46 1017.62 1017.81 1018.00 1018.14 1018.20 1018.16 1018.03 1017.85 1017.66 1017.51 1017.44 1017.46 1017.58 1017.76 1017.98 1018.20 1018.39 1018.56 1018.71 1018.85
1012.77 1013.16 1013.65 1014.18 1014.72 1015.21 1015.62 1015.93 1016.16 1016.33 1016.46 1016.58 1016.72 1016.86 1017.00 1017.12 1017.20 1017.24 1017.25 1017.25 1017.28 1017.34 1017.46 1017.63 1017.80 1017.96 1018.06 1018.06 1017.98 1017.82 1017.62 1017.44 1017.31 1017.26 1017.32 1017.46 1017.65 1017.87 1018.07 1018.25 1018.39 1018.50 1018.62
1013.00 1013.33 1013.73 1014.19 1014.66 1015.10 1015.48 1015.78 1016.01 1016.19 1016.33 1016.46 1016.59 1016.72 1016.85 1016.95 1017.02 1017.06 1017.07 1017.09 1017.13 1017.21 1017.33 1017.48 1017.63 1017.75 1017.81 1017.77 1017.66 1017.48 1017.29 1017.11 1017.01 1017.00 1017.08 1017.25 1017.45 1017.67 1017.86 1018.00 1018.10 1018.18 1018.27
1013.26 1013.51 1013.83 1014.21 1014.59 1014.96 1015.29 1015.55 1015.76 1015.92 1016.06 1016.19 1016.32 1016.45 1016.57 1016.67 1016.74 1016.78 1016.81 1016.84 1016.88 1016.96 1017.06 1017.19 1017.31 1017.40 1017.41 1017.36 1017.22 1017.05 1016.86 1016.71 1016.63 1016.65 1016.76 1016.94 1017.15 1017.36 1017.53 1017.65 1017.72 1017.76 1017.81
1013.49 1013.69 1013.95 1014.24 1014.54 1014.82 1015.07 1015.28 1015.44 1015.58 1015.70 1015.82 1015.95 1016.08 1016.21 1016.33 1016.41 1016.47 1016.50 1016.53 1016.56 1016.62 1016.70 1016.80 1016.88 1016.94 1016.93 1016.86 1016.73 1016.57 1016.40 1016.27 1016.21 1016.24 1016.36 1016.55 1016.76 1016.96 1017.11 1017.21 1017.26 1017.27 1017.28
1013.64 1013.83 1014.04 1014.27 1014.49 1014.70 1014.87 1015.01 1015.12 1015.21 1015.31 1015.42 1015.55 1015.69 1015.84 1015.98 1016.09 1016.16 1016.20 1016.22 1016.24 1016.27 1016.32 1016.37 1016.43 1016.46 1016.44 1016.38 1016.26 1016.11 1015.96 1015.85 1015.80 1015.84 1015.95 1016.12 1016.32 1016.50 1016.65 1016.73 1016.76 1016.75 1016.73
1013.68 1013.87 1014.07 1014.27 1014.44 1014.59 1014.70 1014.78 1014.83 1014.88 1014.95 1015.04 1015.18 1015.34 1015.52 1015.68 1015.82 1015.92 1015.96 1015.98 1015.97 1015.97 1015.97 1015.99 1016.02 1016.03 1016.02 1015.96 1015.87 1015.74 1015.62 1015.51 1015.46 1015.47 1015.56 1015.70 1015.87 1016.04 1016.17 1016.25 1016.27 1016.24 1016.21
1013.55 1013.79 1014.00 1014.20 1014.36 1014.49 1014.56 1014.60 1014.61 1014.62 1014.66 1014.75 1014.89 1015.07 1015.27 1015.47 1015.64 1015.76 1015.82 1015.82 1015.79 1015.75 1015.71 1015.70 1015.70 1015.70 1015.70 1015.66 1015.60 1015.50 1015.38 1015.27 1015.19 1015.18 1015.22 1015.32 1015.45 1015.59 1015.71 1015.78 1015.80 1015.77 1015.71
1013.26 1013.54 1013.80 1014.03 1014.22 1014.35 1014.43 1014.45 1014.45 1014.45 1014.47 1014.55 1014.70 1014.89 1015.12 1015.35 1015.55 1015.69 1015.75 1015.75 1015.70 1015.62 1015.55 1015.50 1015.49 1015.49 1015.50 1015.49 1015.44 1015.36 1015.25 1015.13 1015.02 1014.95 1014.94 1014.98 1015.07 1015.18 1015.28 1015.34 1015.35 1015.31 1015.23
1012.82 1013.14 1013.45 1013.74 1013.98 1014.17 1014.28 1014.33 1014.34 1014.34 1014.36 1014.44 1014.58 1014.79 1015.04 1015.29 1015.51 1015.66 1015.73 1015.73 1015.66 1015.56 1015.46 1015.39 1015.36 1015.36 1015.38 1015.39 1015.37 1015.30 1015.19 1015.05 1014.90 1014.78 1014.70 1014.68 1014.72 1014.79 1014.86 1014.91 1014.91 1014.85 1014.74
1012.31 1012.65 1013.00 1013.35 1013.66 1013.92 1014.09 1014.20 1014.24 1014.27 1014.30 1014.38 1014.52 1014.73 1014.98 1015.24 1015.47 1015.64 1015.71 1015.70 1015.63 1015.51 1015.40 1015.31 1015.27 1015.27 1015.30 1015.33 1015.32 1015.26 1015.14 1014.98 1014.79 1014.61 1014.47 1014.39 1014.37 1014.40 1014.44 1014.46 1014.44 1014.35 1014.21
1011.82 1012.13 1012.50 1012.90 1013.28 1013.61 1013.86 1014.04 1014.14 1014.20 1014.25 1014.33 1014.47 1014.66 1014.91 1015.16 1015.39 1015.56 1015.64 1015.64 1015.56 1015.44 1015.32 1015.22 1015.18 1015.18 1015.22 1015.25 1015.25 1015.19 1015.07 1014.88 1014.66 1014.44 1014.24 1014.11 1014.03 1014.01 1014.01 1014.00 1013.94 1013.82 1013.64
1011.43 1011.69 1012.04 1012.45 1012.87 1013.27 1013.60 1013.85 1014.01 1014.11 1014.18 1014.26 1014.39 1014.56 1014.79 1015.02 1015.24 1015.41 1015.50 1015.50 1015.43 1015.31 1015.19 1015.10 1015.06 1015.06 1015.10 1015.13 1015.14 1015.08 1014.95 1014.75 1014.51 1014.25 1014.01 1013.83 1013.71 1013.64 1013.59 1013.54 1013.44 1013.29 1013.06
1011.25 1011.41 1011.69 1012.08 1012.52 1012.95 1013.34 1013.64 1013.86 1013.99 1014.08 1014.16 1014.27 1014.42 1014.61 1014.82 1015.03 1015.19 1015.28 1015.29 1015.23 1015.13 1015.02 1014.94 1014.90 1014.90 1014.94 1014.97 1014.98 1014.93 1014.80 1014.60 1014.34 1014.07 1013.81 1013.59 1013.43 1013.31 1013.22 1013.12 1012.99 1012.79 1012.54
1011.30 1011.34 1011.53 1011.85 1012.26 1012.70 1013.11 1013.44 1013.69 1013.85 1013.95 1014.02 1014.11 1014.23 1014.39 1014.58 1014.76 1014.91 1015.01 1015.03 1015.00 1014.91 1014.82 1014.75 1014.71 1014.71 1014.75 1014.79 1014.80 1014.75 1014.63 1014.44 1014.19 1013.91 1013.65 1013.41 1013.22 1013.07 1012.94 1012.80 1012.63 1012.40 1012.13
1011.60 1011.51 1011.58 1011.81 1012.15 1012.55 1012.94 1013.28 1013.53 1013.70 1013.80 1013.86 1013.93 1014.02 1014.15 1014.31 1014.47 1014.62 1014.72 1014.76 1014.74 1014.68 1014.60 1014.54 1014.51 1014.51 1014.55 1014.59 1014.60 1014.57 1014.47 1014.30 1014.07 1013.81 1013.55 1013.31 1013.11 1012.93 1012.77 1012.60 1012.41 1012.17 1011.89
1012.09 1011.88 1011.83 1011.95 1012.19 1012.52 1012.86 1013.17 1013.40 1013.56 1013.65 1013.70 1013.75 1013.82 1013.92 1014.06 1014.21 1014.34 1014.44 1014.49 1014.49 1014.44 1014.38 1014.33 1014.30 1014.30 1014.34 1014.38 1014.41 1014.39 1014.32 1014.18 1013.99 1013.77 1013.53 1013.30 1013.09 1012.90 1012.72 1012.54 1012.33 1012.10 1011.85
1012.68 1012.37 1012.22 1012.22 1012.36 1012.60 1012.87 1013.12 1013.32 1013.45 1013.53 1013.56 1013.60 1013.65 1013.74 1013.85 1013.99 1014.11 1014.21 1014.26 1014.26 1014.22 1014.16 1014.10 1014.07 1014.07 1014.10 1014.15 1014.19 1014.20 1014.16 1014.06 1013.92 1013.73 1013.53 1013.32 1013.12 1012.94 1012.76 1012.57 1012.38 1012.17 1011.96
1013.28 1012.92 1012.68 1012.59 1012.63 1012.76 1012.95 1013.13 1013.28 1013.38 1013.44 1013.47 1013.49 1013.54 1013.61 1013.72 1013.84 1013.95 1014.03 1014.07 1014.06 1014.01 1013.94 1013.87 1013.83 1013.82 1013.84 1013.89 1013.94 1013.97 1013.97 1013.92 1013.82 1013.68 1013.51 1013.33 1013.16 1012.99 1012.82 1012.65 1012.48 1012.31 1012.16
Thickness
5821 5819 5807 5805 5803 5803 5802 5800 5798 5795 5792 5788 5785 5782 5781 5779 5777 5776 5774 5772 5770 5768 5765 5763 5760 5759 5758 5757 5756 5754 5753 5751 5750 5749 5748 5747 5746 5744 5744 5743 5745 5744 5741
5826 5819 5809 5807 5805 5803 5802 5801 5799 5797 5793 5789 5786 5784 5782 5780 5778 5776 5774 5773 5771 5769 5766 5763 5761 5759 5758 5756 5755 5753 5752 5751 5749 5748 5747 5747 5745 5744 5742 5741 5742 5741 5739
5827 5820 5811 5808 5806 5804 5802 5801 5799 5797 5794 5790 5787 5785 5783 5782 5779 5777 5775 5773 5771 5769 5767 5765 5762 5760 5758 5756 5754 5753 5751 5750 5749 5748 5748 5752 5747 5743 5741 5739 5738 5737 5736
5827 5821 5815 5809 5806 5804 5802 5800 5799 5797 5794 5791 5787 5784 5782 5781 5779 5778 5775 5773 5771 5769 5767 5765 5764 5761 5759 5757 5755 5753 5751 5750 5749 5749 5753 5754 5750 5743 5740 5738 5737 5735 5734
5828 5822 5815 5809 5806 5803 5801 5799 5797 5796 5793 5790 5786 5783 5781 5779 5778 5776 5775 5773 5770 5769 5767 5765 5763 5761 5760 5758 5756 5753 5751 5750 5749 5749 5754 5752 5750 5743 5739 5738 5737 5735 5733
5828 5824 5815 5808 5805 5802 5800 5797 5795 5794 5792 5790 5787 5783 5781 5779 5777 5775 5774 5772 5770 5768 5766 5765 5763 5761 5759 5758 5756 5754 5752 5750 5749 5754 5753 5751 5751 5743 5739 5737 5736 5735 5733
5829 5824 5815 5807 5804 5801 5798 5796 5794 5793 5791 5789 5786 5783 5780 5778 5776 5774 5773 5771 5770 5768 5766 5765 5764 5762 5760 5758 5756 5754 5752 5750 5752 5756 5753 5751 5749 5743 5740 5738 5736 5734 5733
5828 5824 5814 5806 5803 5800 5797 5795 5793 5792 5790 5788 5785 5783 5780 5777 5775 5773 5771 5770 5768 5767 5765 5764 5763 5762 5760 5758 5756 5754 5752 5750 5753 5755 5754 5752 5748 5743 5740 5738 5736 5734 5732
5826 5822 5815 5809 5803 5798 5796 5793 5791 5790 5788 5786 5784 5782 5779 5776 5774 5772 5771 5769 5767 5766 5765 5763 5762 5761 5760 5758 5756 5754 5752 5751 5752 5754 5754 5753 5748 5743 5740 5739 5737 5735 5733
5821 5819 5815 5811 5806 5801 5797 5792 5789 5788 5786 5784 5782 5780 5778 5776 5774 5772 5770 5769 5767 5765 5764 5763 5762 5761 5760 5758 5756 5754 5752 5751 5753 5757 5754 5751 5747 5743 5741 5740 5738 5737 5734
5815 5815 5813 5809 5805 5802 5799 5794 5789 5786 5784 5783 5781 5779 5777 5779 5779 5775 5773 5769 5766 5765 5764 5763 5761 5760 5760 5759 5757 5755 5753 5756 5760 5759 5758 5754 5749 5745 5742 5741 5739 5738 5736
5809 5810 5810 5807 5803 5800 5799 5794 5793 5790 5786 5784 5785 5781 5779 5780 5777 5777 5772 5768 5766 5765 5764 5763 5761 5760 5759 5764 5763 5757 5759 5760 5760 5760 5759 5754 5749 5745 5743 5742 5740 5739 5737
5807 5807 5806 5803 5800 5799 5796 5794 5793 5791 5787 5784 5782 5779 5778 5777 5776 5774 5774 5771 5768 5767 5767 5765 5764 5764 5764 5764 5765 5764 5764 5764 5763 5762 5760 5754 5748 5745 5744 5743 5741 5740 5738
5806 5805 5804 5801 5797 5794 5794 5792 5790 5789 5786 5785 5781 5778 5778 5775 5774 5774 5771 5773 5771 5770 5768 5769 5767 5766 5765 5764 5764 5763 5763 5762 5762 5761 5757 5752 5748 5745 5744 5743 5742 5741 5740
5804 5803 5802 5799 5796 5792 5789 5788 5788 5788 5787 5783 5780 5777 5775 5775 5772 5771 5769 5768 5769 5771 5769 5767 5767 5766 5765 5764 5763 5762 5761 5761 5760 5759 5755 5751 5748 5746 5744 5743 5743 5742 5742
5803 5802 5802 5798 5795 5791 5787 5785 5784 5784 5782 5782 5779 5777 5773 5772 5771 5768 5766 5765 5766 5766 5767 5767 5766 5763 5763 5764 5762 5761 5759 5759 5759 5757 5757 5755 5751 5748 5745 5744 5743 5743 5743
5804 5802 5799 5796 5793 5789 5786 5784 5783 5782 5781 5779 5777 5774 5771 5769 5767 5764 5764 5763 5763 5763 5762 5760 5760 5760 5761 5761 5760 5759 5758 5756 5756 5755 5754 5753 5753 5751 5748 5745 5744 5743 5743
5802 5799 5797 5795 5791 5788 5785 5782 5782 5781 5779 5777 5775 5772 5768 5766 5764 5761 5762 5762 5761 5761 5760 5759 5758 5758 5760 5759 5758 5757 5756 5754 5753 5753 5754 5752 5751 5751 5750 5748 5745 5743 5742
5799 5796 5793 5792 5790 5787 5783 5780 5778 5776 5774 5771 5770 5768 5766 5763 5761 5758 5758 5757 5757 5758 5759 5759 5759 5756 5756 5755 5756 5755 5755 5754 5753 5753 5752 5751 5750 5748 5748 5748 5746 5744 5743
5796 5793 5790 5788 5786 5784 5780 5775 5772 5769 5766 5763 5761 5760 5759 5758 5756 5754 5754 5754 5754 5754 5753 5753 5752 5751 5752 5751 5753 5753 5753 5755 5754 5754 5751 5752 5749 5747 5747 5746 5746 5746 5743
5791 5788 5786 5783 5782 5778 5773 5768 5763 5759 5757 5753 5750 5748 5748 5750 5751 5749 5750 5749 5749 5749 5749 5750 5749 5749 5748 5750 5748 5749 5753 5754 5751 5749 5750 5749 5749 5746 5744 5743 5744 5742 5743
5783 5782 5781 5779 5778 5775 5771 5767 5761 5756 5750 5746 5741 5739 5739 5741 5743 5744 5744 5743 5744 5744 5743 5743 5742 5743 5746 5746 5743 5741 5742 5747 5745 5748 5747 5745 5744 5745 5745 5744 5740 5739 5739
5773 5774 5774 5773 5772 5770 5768 5764 5758 5752 5746 5740 5738 5737 5737 5736 5737 5737 5739 5739 5738 5738 5738 5738 5738 5737 5736 5741 5742 5738 5734 5734 5738 5746 5744 5742 5740 5741 5743 5741 5739 5736 5736
5763 5765 5764 5763 5761 5760 5758 5756 5751 5746 5741 5742 5740 5740 5740 5737 5734 5733 5732 5734 5734 5733 5733 5734 5738 5736 5733 5733 5736 5735 5735 5734 5729 5733 5740 5742 5740 5738 5738 5738 5737 5735 5733
5749 5751 5750 5749 5748 5747 5746 5744 5741 5740 5739 5738 5737 5735 5735 5734 5731 5729 5727 5728 5729 5729 5730 5730 5731 5731 5731 5729 5729 5730 5729 5728 5728 5725 5725 5730 5737 5740 5738 5736 5734 5732 5728
5732 5734 5736 5735 5734 5734 5733 5732 5730 5729 5729 5729 5729 5728 5727 5726 5724 5723 5721 5722 5723 5725 5725 5725 5726 5727 5727 5727 5726 5726 5725 5725 5726 5726 5723 5722 5726 5733 5733 5730 5730 5727 5723